ONEWEB-0021, 45134

Orbit data source: Space-Track

ONEWEB-0021, 45134 is a payload satellite owned by One Web (UK) in LEO that was launched on Thu, 06 Feb 2020 UTC via a SOYUZ-2-1B launch vehicle from the Tyuratam Missile And Space Complex (TTMTR). Payload-class satellites include a variety of spacecraft equipped with specific instruments for various scientific and technological missions. These include communications satellites like Starlink; space stations such as the ISS; scientific satellites like the Hubble; Earth observation satellites from companies like Planet Labs, Umbra, and HawkEye 360; GPS; miniature CubeSats for education and research; and military/defense satellites.

Loading next visibility...
Identifier
45134, 2020-008D
Orbit
LEO
Last TLE update
21 hours ago
Origin
Manufacturer
One Web
Mission
Operational Commercial Communications
Bus & Motor
ARROW, Unknown motor
Mass
148 kg wet, ~140 kg dry
Launch date (UTC)
2020-02-06 (5 years ago)
Launch vehicle
SOYUZ-2-1B
Launch site
Tyuratam Missile And Space Complex (TTMTR)
Object type
Payload
Rocket body
Debris
Shape & HBR
Trap Box + 2 Pan, 5 m
Radar Cross Section
2.957 m², Large (>1 m²)

Expand to show TLE details & history

TLE from 21 hours ago
0 ONEWEB-0021
1 45134U 20008D   25128.51910567 -.00000349  00000-0 -10357-2 0  9995
2 45134  87.8795 116.9722 0001911  85.0568 275.0778 13.10369441255656
Epoch: 2025-05-08T12:27Z
Definitive object data (Epoch: 2025-05-08T12:27:30.729Z)
Latitude
0.00001°
Longitude
63.50572°
Altitude
1,224.489 km
Speed
7.242 km/s
True Right ascension
07h 47m 53s
True Declination
0° 00' 00"
Sunlit
Object was in daylight at TLE epoch
Visualization TLE readout
Latitude
86.33853°
Longitude
-151.81411°
Altitude
1,234.141 km
Speed
7.245 km/s
Apparent Right ascension
05h 13m 19s
Apparent Declination
38° 27' 38"
Sunlit
Object is in daylight
Visualization observer readout
Local Sidereal Time
17:14:39
Azimuth
0.264° NNE
Elevation
-11.623°
Doppler factor
1
Orbital elements
Apogee altitude
1,220.302 km
Perigee altitude
1,217.398 km
Semi-major axis
7,596.987 km
Eccentricity
0.0001911
Inclination
87.8795°
RAAN
116.9722°
Arg. of periapsis
85.0568°
True anomaly
275.05599°
Mean anomaly
275.0778°
Eccentric anomaly
275.06689°
Mean motion
3.27779 °/min
BSTAR
-0.0010357
Orbital period
109.83 mins
Loading maneuver chart data...
Loading SW <> Apogee altitude chart data...
Loading historical data...
Loading historical data...
Loading historical data...
Loading historical data...
Loading historical data...
Loading historical data...
Loading historical data...

ONEWEB-0021 Visibility forecast

Observer location: undefined°, undefined°

Span
Click to sort rows by Start time (UTC) header in descending order
Start Az.
Max El. time (UTC)
Max El. Az.
Max El.
End time (UTC)
End Az.
14 mins2025-05-09 11:02:22.961Z4.836° NNE2025-05-09 11:09:22.961Z73.518° E42.351°2025-05-09 11:16:22.961Z168.387° S
8 mins2025-05-09 12:55:22.961Z320.21° NNW2025-05-09 12:59:22.961Z280.281° WNW20.334°2025-05-09 13:03:22.961Z243.885° WSW
12 mins2025-05-09 23:23:22.961Z168.632° S2025-05-09 23:28:22.961Z118.01° SE43.553°2025-05-09 23:35:22.961Z4.962° NNE
8 mins2025-05-10 01:16:22.961Z255.543° W2025-05-10 01:19:22.961Z284.054° WNW18.18°2025-05-10 01:24:22.961Z328.068° NNW
|